Time,TemperatureF,DewpointF,PressureIn,WindDirection,WindDirectionDegrees,WindSpeedMPH,WindSpeedGustMPH,Humidity,HourlyPrecipIn,Conditions,Clouds,dailyrainin,SoftwareType,DateUTC
2013-07-20 00:01:00,76.1,72.3,29.80,SW,234,0.1,0.0,88,0.00,CLR,,0.00,WeatherDisplay:10.37,2013-07-20 04:01:00,
2013-07-20 00:02:00,76.1,72.3,29.80,SW,234,0.0,1.2,88,0.00,CLR,,0.00,WeatherDisplay:10.37,2013-07-20 04:02:00,
2013-07-20 00:07:00,75.9,72.1,29.80,SW,234,0.0,0.0,88,0.00,CLR,,0.00,WeatherDisplay:10.37,2013-07-20 04:07:00,
2013-07-20 00:12:00,75.7,72.2,29.81,WSW,248,0.6,3.5,89,0.00,CLR,,0.00,WeatherDisplay:10.37,2013-07-20 04:12:00,
2013-07-20 00:17:00,75.7,72.2,29.80,WSW,254,0.4,1.2,89,0.00,CLR,,0.00,WeatherDisplay:10.37,2013-07-20 04:17:00,
2013-07-20 00:22:00,75.7,72.2,29.81,WSW,254,0.2,1.2,89,0.00,CLR,,0.00,WeatherDisplay:10.37,2013-07-20 04:22:00,
2013-07-20 00:27:00,75.7,72.2,29.81,SSW,199,1.4,4.6,89,0.00,CLR,,0.00,WeatherDisplay:10.37,2013-07-20 04:27:00,
2013-07-20 00:32:00,75.8,72.3,29.81,WSW,255,2.0,4.6,89,0.00,CLR,,0.00,WeatherDisplay:10.37,2013-07-20 04:32:00,
2013-07-20 00:37:00,75.9,72.1,29.80,SW,223,1.6,3.5,88,0.00,CLR,,0.00,WeatherDisplay:10.37,2013-07-20 04:37:00,
2013-07-20 00:42:00,76.1,72.3,29.81,SW,230,2.3,4.6,88,0.00,CLR,,0.00,WeatherDisplay:10.37,2013-07-20 04:42:00,
2013-07-20 00:47:00,76.2,72.0,29.81,SE,146,2.2,3.5,87,0.00,CLR,,0.00,WeatherDisplay:10.37,2013-07-20 04:47:00,
2013-07-20 00:52:00,76.3,72.1,29.81,WSW,258,2.0,4.6,87,0.00,CLR,,0.00,WeatherDisplay:10.37,2013-07-20 04:52:00,
2013-07-20 00:57:00,76.4,71.9,29.81,WSW,248,0.8,3.5,86,0.00,CLR,,0.00,WeatherDisplay:10.37,2013-07-20 04:57:00,
2013-07-20 01:02:00,76.6,72.1,29.81,WSW,245,2.4,3.5,86,0.00,CLR,,0.00,WeatherDisplay:10.37,2013-07-20 05:02:00,
2013-07-20 01:07:00,76.7,72.2,29.82,SSW,211,1.4,3.5,86,0.00,CLR,,0.00,WeatherDisplay:10.37,2013-07-20 05:07:00,
2013-07-20 01:12:00,76.6,71.7,29.81,SSW,211,0.0,1.2,85,0.00,CLR,,0.00,WeatherDisplay:10.37,2013-07-20 05:12:00,
2013-07-20 01:17:00,76.6,72.1,29.82,SSW,211,0.1,1.2,86,0.00,CLR,,0.00,WeatherDisplay:10.37,2013-07-20 05:17:00,
2013-07-20 01:22:00,76.4,71.9,29.81,SSW,211,0.1,1.2,86,0.00,CLR,,0.00,WeatherDisplay:10.37,2013-07-20 05:22:00,
2013-07-20 01:27:00,76.2,72.0,29.82,South,180,0.5,2.3,87,0.00,CLR,,0.00,WeatherDisplay:10.37,2013-07-20 05:27:00,
2013-07-20 01:32:00,76.1,71.9,29.81,WSW,237,1.0,3.5,87,0.00,CLR,,0.00,WeatherDisplay:10.37,2013-07-20 05:32:00,
2013-07-20 01:37:00,76.1,71.9,29.81,SSW,205,1.9,3.5,87,0.00,CLR,,0.00,WeatherDisplay:10.37,2013-07-20 05:37:00,
2013-07-20 01:42:00,76.0,71.8,29.81,WSW,251,0.9,2.3,87,0.00,CLR,,0.00,WeatherDisplay:10.37,2013-07-20 05:42:00,
2013-07-20 01:47:00,75.9,71.8,29.81,West,261,0.6,3.5,87,0.00,CLR,,0.00,WeatherDisplay:10.37,2013-07-20 05:47:00,
2013-07-20 01:52:00,75.8,71.7,29.80,SW,227,0.4,1.2,87,0.00,CLR,,0.00,WeatherDisplay:10.37,2013-07-20 05:52:00,
2013-07-20 01:57:00,75.6,71.5,29.80,SW,233,1.1,2.3,87,0.00,CLR,,0.00,WeatherDisplay:10.37,2013-07-20 05:57:00,
2013-07-20 02:02:00,75.4,71.3,29.80,SW,227,0.0,0.0,87,0.00,CLR,,0.00,WeatherDisplay:10.37,2013-07-20 06:02:00,
2013-07-20 02:07:00,75.2,71.4,29.80,SW,227,0.0,1.2,88,0.00,CLR,,0.00,WeatherDisplay:10.37,2013-07-20 06:07:00,
2013-07-20 02:12:00,75.1,71.3,29.80,SW,227,1.1,2.3,88,0.00,CLR,,0.00,WeatherDisplay:10.37,2013-07-20 06:12:00,
2013-07-20 02:17:00,75.0,71.2,29.79,SW,214,0.0,1.2,88,0.00,CLR,,0.00,WeatherDisplay:10.37,2013-07-20 06:17:00,
2013-07-20 02:22:00,75.0,71.2,29.79,SW,214,0.0,1.2,88,0.00,CLR,,0.00,WeatherDisplay:10.37,2013-07-20 06:22:00,
2013-07-20 02:27:00,74.9,71.1,29.78,SW,214,0.0,0.0,88,0.00,CLR,,0.00,WeatherDisplay:10.37,2013-07-20 06:27:00,
2013-07-20 02:32:00,74.9,71.4,29.79,SW,230,0.2,1.2,89,0.00,CLR,,0.00,WeatherDisplay:10.37,2013-07-20 06:32:00,
2013-07-20 02:37:00,74.7,71.2,29.79,WSW,256,1.4,3.5,89,0.00,CLR,,0.00,WeatherDisplay:10.37,2013-07-20 06:37:00,
2013-07-20 02:42:00,74.7,71.2,29.79,SSW,199,2.0,3.5,89,0.00,CLR,,0.00,WeatherDisplay:10.37,2013-07-20 06:42:00,
2013-07-20 02:47:00,74.8,71.3,29.78,SSW,207,0.7,2.3,89,0.00,CLR,,0.00,WeatherDisplay:10.37,2013-07-20 06:47:00,
2013-07-20 02:52:00,75.0,71.2,29.78,WSW,254,1.6,2.3,88,0.00,CLR,,0.00,WeatherDisplay:10.37,2013-07-20 06:52:00,
2013-07-20 02:57:00,75.2,71.4,29.78,SW,225,0.3,1.2,88,0.00,CLR,,0.00,WeatherDisplay:10.37,2013-07-20 06:57:00,
2013-07-20 03:02:00,75.3,71.2,29.78,WSW,251,1.1,3.5,87,0.00,CLR,,0.00,WeatherDisplay:10.37,2013-07-20 07:02:00,
2013-07-20 03:07:00,75.4,71.3,29.78,WSW,251,0.0,1.2,87,0.00,CLR,,0.00,WeatherDisplay:10.37,2013-07-20 07:07:00,
2013-07-20 03:12:00,75.3,71.5,29.78,WSW,251,0.0,0.0,88,0.00,CLR,,0.00,WeatherDisplay:10.37,2013-07-20 07:12:00,
2013-07-20 03:17:00,75.2,71.4,29.78,WSW,251,0.4,1.2,88,0.00,CLR,,0.00,WeatherDisplay:10.37,2013-07-20 07:17:00,
2013-07-20 03:22:00,75.1,71.3,29.78,WSW,238,0.5,2.3,88,0.00,CLR,,0.00,WeatherDisplay:10.37,2013-07-20 07:22:00,
2013-07-20 03:27:00,74.9,71.1,29.78,WSW,238,0.3,1.2,88,0.00,CLR,,0.00,WeatherDisplay:10.37,2013-07-20 07:27:00,
2013-07-20 03:32:00,74.9,71.1,29.77,WSW,238,0.0,2.3,88,0.00,CLR,,0.00,WeatherDisplay:10.37,2013-07-20 07:32:00,
2013-07-20 03:37:00,74.8,71.0,29.77,SW,217,0.0,0.0,88,0.00,CLR,,0.00,WeatherDisplay:10.37,2013-07-20 07:37:00,
2013-07-20 03:42:00,74.7,70.9,29.77,SW,218,0.5,1.2,88,0.00,CLR,,0.00,WeatherDisplay:10.37,2013-07-20 07:42:00,
2013-07-20 03:47:00,74.5,70.7,29.77,SW,218,0.3,1.2,88,0.00,CLR,,0.00,WeatherDisplay:10.37,2013-07-20 07:47:00,
2013-07-20 03:52:00,74.3,70.8,29.76,SW,219,0.7,1.2,89,0.00,CLR,,0.00,WeatherDisplay:10.37,2013-07-20 07:52:00,
2013-07-20 03:57:00,74.1,70.6,29.76,SW,219,0.3,1.2,89,0.00,CLR,,0.00,WeatherDisplay:10.37,2013-07-20 07:57:00,
2013-07-20 04:02:00,73.9,70.5,29.76,South,190,0.2,3.5,89,0.00,CLR,,0.00,WeatherDisplay:10.37,2013-07-20 08:02:00,
2013-07-20 04:07:00,73.7,70.3,29.76,South,190,0.0,0.0,89,0.00,CLR,,0.00,WeatherDisplay:10.37,2013-07-20 08:07:00,
2013-07-20 04:12:00,73.5,70.4,29.76,South,190,0.0,0.0,90,0.00,CLR,,0.00,WeatherDisplay:10.37,2013-07-20 08:12:00,
2013-07-20 04:17:00,73.3,70.2,29.76,SSW,192,0.5,1.2,90,0.00,CLR,,0.00,WeatherDisplay:10.37,2013-07-20 08:17:00,
2013-07-20 04:22:00,73.1,70.0,29.75,SSW,192,0.0,0.0,90,0.00,CLR,,0.00,WeatherDisplay:10.37,2013-07-20 08:22:00,
2013-07-20 04:27:00,73.0,69.9,29.76,SSW,193,0.6,1.2,90,0.00,CLR,,0.00,WeatherDisplay:10.37,2013-07-20 08:27:00,
2013-07-20 04:32:00,72.8,70.0,29.76,West,262,1.4,2.3,91,0.00,CLR,,0.00,WeatherDisplay:10.37,2013-07-20 08:32:00,
2013-07-20 04:37:00,72.6,69.5,29.75,West,262,0.0,0.0,90,0.00,CLR,,0.00,WeatherDisplay:10.37,2013-07-20 08:37:00,
2013-07-20 04:42:00,72.4,69.6,29.76,West,262,0.5,1.2,91,0.00,CLR,,0.00,WeatherDisplay:10.37,2013-07-20 08:42:00,
2013-07-20 04:47:00,72.2,69.4,29.76,West,262,0.5,1.2,91,0.00,CLR,,0.00,WeatherDisplay:10.37,2013-07-20 08:47:00,
2013-07-20 04:52:00,72.0,69.2,29.77,West,262,0.0,0.0,91,0.00,CLR,,0.00,WeatherDisplay:10.37,2013-07-20 08:52:00,
2013-07-20 04:57:00,71.8,69.0,29.77,West,262,0.0,1.2,91,0.00,CLR,,0.00,WeatherDisplay:10.37,2013-07-20 08:57:00,
2013-07-20 05:02:00,71.5,68.7,29.77,West,262,0.0,0.0,91,0.00,CLR,,0.00,WeatherDisplay:10.37,2013-07-20 09:02:00,
2013-07-20 05:07:00,71.3,68.9,29.77,West,262,0.0,0.0,92,0.00,CLR,,0.00,WeatherDisplay:10.37,2013-07-20 09:07:00,
2013-07-20 05:12:00,71.2,68.8,29.78,West,262,0.0,0.0,92,0.00,CLR,,0.00,WeatherDisplay:10.37,2013-07-20 09:12:00,
2013-07-20 05:17:00,71.2,68.8,29.78,WSW,247,1.1,2.3,92,0.00,CLR,,0.00,WeatherDisplay:10.37,2013-07-20 09:17:00,
2013-07-20 05:22:00,71.3,68.9,29.78,WSW,243,0.5,1.2,92,0.00,CLR,,0.00,WeatherDisplay:10.37,2013-07-20 09:22:00,
2013-07-20 05:27:00,71.5,69.1,29.78,SSW,207,1.1,2.3,92,0.00,CLR,,0.00,WeatherDisplay:10.37,2013-07-20 09:27:00,
2013-07-20 05:32:00,71.8,69.3,29.78,WSW,244,1.3,2.3,92,0.00,CLR,,0.00,WeatherDisplay:10.37,2013-07-20 09:32:00,
2013-07-20 05:37:00,72.1,69.6,29.78,SW,236,1.7,2.3,92,0.00,CLR,,0.00,WeatherDisplay:10.37,2013-07-20 09:37:00,
2013-07-20 05:42:00,72.3,69.8,29.78,SW,236,1.2,3.5,92,0.00,CLR,,0.00,WeatherDisplay:10.37,2013-07-20 09:42:00,
2013-07-20 05:43:00,72.4,69.6,29.78,WSW,242,0.8,2.3,91,0.00,CLR,,0.00,WeatherDisplay:10.37,2013-07-20 09:43:00,
2013-07-20 05:48:00,72.5,69.7,29.78,WSW,250,0.1,1.2,91,0.00,CLR,,0.00,WeatherDisplay:10.37,2013-07-20 09:48:00,
2013-07-20 05:53:00,72.6,69.8,29.78,SE,137,0.4,1.2,91,0.00,CLR,,0.00,WeatherDisplay:10.37,2013-07-20 09:53:00,
2013-07-20 05:58:00,72.7,69.9,29.78,SE,139,0.0,1.2,91,0.00,CLR,,0.00,WeatherDisplay:10.37,2013-07-20 09:58:00,
2013-07-20 06:03:00,72.7,69.9,29.78,SE,138,0.9,2.3,91,0.00,CLR,,0.00,WeatherDisplay:10.37,2013-07-20 10:03:00,
2013-07-20 06:08:00,72.7,69.9,29.78,WSW,238,0.2,3.0,91,0.00,CLR,,0.00,WeatherDisplay:10.37,2013-07-20 10:08:00,
2013-07-20 06:13:00,72.6,69.8,29.78,SSW,200,0.8,3.5,91,0.00,CLR,,0.00,WeatherDisplay:10.37,2013-07-20 10:13:00,
2013-07-20 06:18:00,72.6,69.8,29.78,SW,227,0.1,1.2,91,0.00,CLR,,0.00,WeatherDisplay:10.37,2013-07-20 10:18:00,
2013-07-20 06:23:00,72.6,69.8,29.78,SE,143,0.5,1.2,91,0.00,CLR,,0.00,WeatherDisplay:10.37,2013-07-20 10:23:00,
2013-07-20 06:28:00,72.8,70.0,29.78,NW,321,1.6,2.3,91,0.00,CLR,,0.00,WeatherDisplay:10.37,2013-07-20 10:28:00,
2013-07-20 06:33:00,73.0,70.2,29.79,WNW,295,0.3,2.3,91,0.00,CLR,,0.00,WeatherDisplay:10.37,2013-07-20 10:33:00,
2013-07-20 06:38:00,73.3,70.5,29.78,WSW,256,1.1,2.3,91,0.00,CLR,,0.00,WeatherDisplay:10.37,2013-07-20 10:38:00,
2013-07-20 06:43:00,73.5,70.4,29.79,WSW,256,3.0,3.5,90,0.00,CLR,,0.00,WeatherDisplay:10.37,2013-07-20 10:43:00,
2013-07-20 06:48:00,73.7,70.6,29.79,West,277,2.5,3.5,90,0.00,CLR,,0.00,WeatherDisplay:10.37,2013-07-20 10:48:00,
2013-07-20 06:53:00,73.9,70.8,29.79,SW,236,2.2,3.5,90,0.00,CLR,,0.00,WeatherDisplay:10.37,2013-07-20 10:53:00,
2013-07-20 06:58:00,74.0,70.9,29.79,West,260,2.0,4.6,90,0.00,CLR,,0.00,WeatherDisplay:10.37,2013-07-20 10:58:00,
2013-07-20 07:03:00,74.2,71.1,29.79,WSW,248,0.5,2.3,90,0.00,CLR,,0.00,WeatherDisplay:10.37,2013-07-20 11:03:00,
2013-07-20 07:08:00,74.4,70.9,29.79,WSW,257,2.3,3.5,89,0.00,CLR,,0.00,WeatherDisplay:10.37,2013-07-20 11:08:00,
2013-07-20 07:13:00,74.6,71.1,29.79,SW,232,1.0,2.3,89,0.00,CLR,,0.00,WeatherDisplay:10.37,2013-07-20 11:13:00,
2013-07-20 07:18:00,74.8,71.3,29.79,WNW,290,2.1,3.5,89,0.00,CLR,,0.00,WeatherDisplay:10.37,2013-07-20 11:18:00,
2013-07-20 07:23:00,75.0,71.2,29.80,SW,215,2.5,3.5,88,0.00,CLR,,0.00,WeatherDisplay:10.37,2013-07-20 11:23:00,
2013-07-20 07:28:00,75.2,71.4,29.80,WSW,250,2.6,3.5,88,0.00,CLR,,0.00,WeatherDisplay:10.37,2013-07-20 11:28:00,
2013-07-20 07:33:00,75.4,71.6,29.80,SW,214,1.2,3.5,88,0.00,CLR,,0.00,WeatherDisplay:10.37,2013-07-20 11:33:00,
2013-07-20 07:38:00,75.6,72.1,29.80,WSW,242,0.0,1.2,89,0.00,CLR,,0.00,WeatherDisplay:10.37,2013-07-20 11:38:00,
2013-07-20 07:43:00,75.8,72.3,29.80,South,180,1.7,2.3,89,0.00,CLR,,0.00,WeatherDisplay:10.37,2013-07-20 11:43:00,
2013-07-20 07:48:00,75.8,72.0,29.80,WSW,255,1.7,3.5,88,0.00,CLR,,0.00,WeatherDisplay:10.37,2013-07-20 11:48:00,
2013-07-20 07:53:00,75.9,71.8,29.80,SW,221,4.0,5.8,87,0.00,CLR,,0.00,WeatherDisplay:10.37,2013-07-20 11:53:00,
2013-07-20 07:58:00,76.0,71.8,29.80,WSW,240,1.7,3.5,87,0.00,CLR,,0.00,WeatherDisplay:10.37,2013-07-20 11:58:00,
2013-07-20 08:03:00,76.1,71.9,29.79,WSW,253,1.7,3.5,87,0.00,CLR,,0.00,WeatherDisplay:10.37,2013-07-20 12:03:00,
2013-07-20 08:08:00,76.4,72.2,29.79,SSW,207,1.8,3.5,87,0.00,CLR,,0.00,WeatherDisplay:10.37,2013-07-20 12:08:00,
2013-07-20 08:13:00,76.6,72.4,29.79,SSW,209,1.0,3.5,87,0.00,CLR,,0.00,WeatherDisplay:10.37,2013-07-20 12:13:00,
2013-07-20 08:18:00,76.7,72.2,29.79,WNW,302,1.2,3.5,86,0.00,CLR,,0.00,WeatherDisplay:10.37,2013-07-20 12:18:00,
2013-07-20 08:23:00,76.9,72.7,29.79,WSW,252,1.7,4.6,87,0.00,CLR,,0.00,WeatherDisplay:10.37,2013-07-20 12:23:00,
2013-07-20 08:28:00,76.9,72.4,29.79,SE,145,1.5,3.5,86,0.00,CLR,,0.00,WeatherDisplay:10.37,2013-07-20 12:28:00,
2013-07-20 08:33:00,77.0,72.5,29.79,SW,230,0.7,2.3,86,0.00,CLR,,0.00,WeatherDisplay:10.37,2013-07-20 12:33:00,
2013-07-20 08:38:00,77.1,72.6,29.78,SW,228,0.9,2.3,86,0.00,CLR,,0.00,WeatherDisplay:10.37,2013-07-20 12:38:00,
2013-07-20 08:43:00,77.2,72.7,29.79,WSW,249,2.7,5.8,86,0.00,CLR,,0.00,WeatherDisplay:10.37,2013-07-20 12:43:00,
2013-07-20 08:48:00,77.2,72.3,29.79,WSW,257,2.8,4.6,85,0.00,CLR,,0.00,WeatherDisplay:10.37,2013-07-20 12:48:00,
2013-07-20 08:53:00,77.3,72.8,29.78,SW,228,1.8,4.0,86,0.00,CLR,,0.00,WeatherDisplay:10.37,2013-07-20 12:53:00,
2013-07-20 08:58:00,77.4,73.2,29.78,WSW,251,0.9,2.3,87,0.00,CLR,,0.00,WeatherDisplay:10.37,2013-07-20 12:58:00,
2013-07-20 09:03:00,77.8,73.3,29.79,SW,229,0.7,4.6,86,0.00,CLR,,0.00,WeatherDisplay:10.37,2013-07-20 13:03:00,
2013-07-20 09:08:00,78.3,73.1,29.79,SSW,200,1.6,2.3,84,0.00,CLR,,0.00,WeatherDisplay:10.37,2013-07-20 13:08:00,
2013-07-20 09:13:00,78.9,74.0,29.78,SE,146,2.8,3.5,85,0.00,CLR,,0.00,WeatherDisplay:10.37,2013-07-20 13:13:00,
2013-07-20 09:18:00,79.6,74.3,29.78,West,259,2.8,5.8,84,0.00,CLR,,0.00,WeatherDisplay:10.37,2013-07-20 13:18:00,
2013-07-20 09:23:00,80.0,74.0,29.78,WSW,248,2.6,3.5,82,0.00,CLR,,0.00,WeatherDisplay:10.37,2013-07-20 13:23:00,
2013-07-20 09:28:00,80.5,74.1,29.78,SW,223,3.4,5.8,81,0.00,CLR,,0.00,WeatherDisplay:10.37,2013-07-20 13:28:00,
2013-07-20 09:33:00,80.9,74.5,29.78,SW,224,1.4,2.3,81,0.00,CLR,,0.00,WeatherDisplay:10.37,2013-07-20 13:33:00,
2013-07-20 09:38:00,81.1,74.7,29.78,West,281,3.1,4.6,81,0.00,CLR,,0.00,WeatherDisplay:10.37,2013-07-20 13:38:00,
2013-07-20 09:43:00,81.5,74.4,29.79,WSW,254,2.7,4.6,79,0.00,CLR,,0.00,WeatherDisplay:10.37,2013-07-20 13:43:00,
2013-07-20 09:48:00,81.6,74.1,29.79,WSW,248,4.4,9.2,78,0.00,CLR,,0.00,WeatherDisplay:10.37,2013-07-20 13:48:00,
2013-07-20 09:53:00,81.9,75.1,29.79,SW,228,2.9,3.5,80,0.00,CLR,,0.00,WeatherDisplay:10.37,2013-07-20 13:53:00,
2013-07-20 09:58:00,82.0,74.5,29.79,West,277,3.6,3.6,78,0.00,CLR,,0.00,WeatherDisplay:10.37,2013-07-20 13:58:00,
2013-07-20 10:03:00,82.3,74.7,29.79,WSW,254,5.1,6.9,78,0.00,CLR,,0.00,WeatherDisplay:10.37,2013-07-20 14:03:00,
2013-07-20 10:08:00,82.6,74.3,29.78,SSW,203,3.8,10.4,76,0.00,CLR,,0.00,WeatherDisplay:10.37,2013-07-20 14:08:00,
2013-07-20 10:13:00,82.7,74.8,29.78,WSW,246,1.0,2.3,77,0.00,CLR,,0.00,WeatherDisplay:10.37,2013-07-20 14:13:00,
2013-07-20 10:18:00,82.6,74.7,29.79,WSW,237,1.4,5.8,77,0.00,CLR,,0.00,WeatherDisplay:10.37,2013-07-20 14:18:00,
2013-07-20 10:23:00,83.2,74.8,29.78,WSW,254,6.8,13.8,76,0.00,CLR,,0.00,WeatherDisplay:10.37,2013-07-20 14:23:00,
2013-07-20 10:28:00,83.7,74.9,29.78,WSW,250,3.1,6.9,75,0.00,CLR,,0.00,WeatherDisplay:10.37,2013-07-20 14:28:00,
2013-07-20 10:33:00,83.5,74.3,29.78,SW,223,3.9,6.9,74,0.00,CLR,,0.00,WeatherDisplay:10.37,2013-07-20 14:33:00,
2013-07-20 10:38:00,83.0,73.9,29.77,SE,145,3.8,9.2,74,0.00,CLR,,0.00,WeatherDisplay:10.37,2013-07-20 14:38:00,
2013-07-20 10:43:00,83.0,74.6,29.77,North,360,2.3,5.0,76,0.00,CLR,,0.00,WeatherDisplay:10.37,2013-07-20 14:43:00,
2013-07-20 10:48:00,83.5,75.1,29.77,North,360,3.3,4.0,76,0.00,CLR,,0.00,WeatherDisplay:10.37,2013-07-20 14:48:00,
2013-07-20 10:53:00,83.9,75.9,29.77,North,360,3.9,5.8,77,0.00,CLR,,0.00,WeatherDisplay:10.37,2013-07-20 14:53:00,
2013-07-20 10:58:00,84.0,74.4,29.77,North,360,3.4,6.9,73,0.00,CLR,,0.00,WeatherDisplay:10.37,2013-07-20 14:58:00,
2013-07-20 11:03:00,84.3,74.7,29.76,North,360,4.1,5.8,73,0.00,CLR,,0.00,WeatherDisplay:10.37,2013-07-20 15:03:00,
2013-07-20 11:08:00,84.1,74.9,29.76,North,360,2.4,6.0,74,0.00,CLR,,0.00,WeatherDisplay:10.37,2013-07-20 15:08:00,
2013-07-20 11:13:00,83.9,74.7,29.76,North,360,2.8,8.1,74,0.00,CLR,,0.00,WeatherDisplay:10.37,2013-07-20 15:13:00,
2013-07-20 11:18:00,83.7,74.5,29.76,North,360,3.7,3.7,74,0.00,CLR,,0.00,WeatherDisplay:10.37,2013-07-20 15:18:00,
2013-07-20 11:23:00,83.4,73.8,29.76,North,360,5.0,10.4,73,0.00,CLR,,0.00,WeatherDisplay:10.37,2013-07-20 15:23:00,
2013-07-20 11:28:00,83.0,73.4,29.76,North,360,4.9,8.1,73,0.00,CLR,,0.00,WeatherDisplay:10.37,2013-07-20 15:28:00,
2013-07-20 11:33:00,83.1,75.1,29.76,North,360,3.3,8.1,77,0.00,CLR,,0.00,WeatherDisplay:10.37,2013-07-20 15:33:00,
2013-07-20 11:38:00,83.4,74.6,29.76,North,360,3.4,4.6,75,0.00,CLR,,0.00,WeatherDisplay:10.37,2013-07-20 15:38:00,
2013-07-20 11:43:00,83.8,74.6,29.76,North,360,5.1,8.1,74,0.00,CLR,,0.00,WeatherDisplay:10.37,2013-07-20 15:43:00,
2013-07-20 11:48:00,84.5,75.3,29.76,North,360,4.4,9.2,74,0.00,CLR,,0.00,WeatherDisplay:10.37,2013-07-20 15:48:00,
2013-07-20 11:53:00,84.9,75.7,29.76,North,360,3.1,4.6,74,0.00,CLR,,0.00,WeatherDisplay:10.37,2013-07-20 15:53:00,
2013-07-20 11:58:00,84.6,74.6,29.76,North,360,2.0,5.8,72,0.00,CLR,,0.00,WeatherDisplay:10.37,2013-07-20 15:58:00,
2013-07-20 12:03:00,84.1,74.9,29.75,North,360,1.8,5.8,74,0.00,CLR,,0.00,WeatherDisplay:10.37,2013-07-20 16:03:00,
2013-07-20 12:08:00,84.8,74.8,29.75,North,360,5.5,9.2,72,0.00,CLR,,0.00,WeatherDisplay:10.37,2013-07-20 16:08:00,
2013-07-20 12:13:00,85.2,75.1,29.75,North,360,3.6,6.9,72,0.00,CLR,,0.00,WeatherDisplay:10.37,2013-07-20 16:13:00,
2013-07-20 12:18:00,85.0,74.5,29.75,North,360,4.2,12.7,71,0.00,CLR,,0.00,WeatherDisplay:10.37,2013-07-20 16:18:00,
2013-07-20 12:23:00,84.7,74.7,29.75,North,360,6.1,10.4,72,0.00,CLR,,0.00,WeatherDisplay:10.37,2013-07-20 16:23:00,
2013-07-20 12:28:00,85.2,75.1,29.75,North,360,1.2,3.5,72,0.00,CLR,,0.00,WeatherDisplay:10.37,2013-07-20 16:28:00,
2013-07-20 12:33:00,85.5,75.9,29.75,North,360,2.0,4.6,73,0.00,CLR,,0.00,WeatherDisplay:10.37,2013-07-20 16:33:00,
2013-07-20 12:38:00,85.9,75.0,29.74,North,360,4.1,5.8,70,0.00,CLR,,0.00,WeatherDisplay:10.37,2013-07-20 16:38:00,
2013-07-20 12:43:00,85.7,74.4,29.74,North,360,4.8,10.4,69,0.00,CLR,,0.00,WeatherDisplay:10.37,2013-07-20 16:43:00,
2013-07-20 12:48:00,85.6,74.7,29.74,North,360,5.7,10.4,70,0.00,CLR,,0.00,WeatherDisplay:10.37,2013-07-20 16:48:00,
2013-07-20 12:53:00,86.3,76.2,29.75,North,360,2.8,6.9,72,0.00,CLR,,0.00,WeatherDisplay:10.37,2013-07-20 16:53:00,
2013-07-20 12:58:00,87.0,75.6,29.75,North,360,10.3,11.5,69,0.00,CLR,,0.00,WeatherDisplay:10.37,2013-07-20 16:58:00,
2013-07-20 13:03:00,87.2,75.8,29.75,North,360,5.1,8.1,69,0.00,CLR,,0.00,WeatherDisplay:10.37,2013-07-20 17:03:00,
2013-07-20 13:08:00,87.0,76.0,29.74,North,360,4.7,9.2,70,0.00,CLR,,0.00,WeatherDisplay:10.37,2013-07-20 17:08:00,
2013-07-20 13:13:00,87.0,76.0,29.74,North,360,9.0,12.7,70,0.00,CLR,,0.00,WeatherDisplay:10.37,2013-07-20 17:13:00,
2013-07-20 13:18:00,87.1,77.4,29.75,North,360,2.3,6.0,73,0.00,CLR,,0.00,WeatherDisplay:10.37,2013-07-20 17:18:00,
2013-07-20 13:24:00,87.2,76.2,29.74,North,360,5.7,11.5,70,0.00,CLR,,0.00,WeatherDisplay:10.37,2013-07-20 17:24:00,
2013-07-20 13:29:00,87.3,76.3,29.75,North,360,6.1,8.1,70,0.00,CLR,,0.00,WeatherDisplay:10.37,2013-07-20 17:29:00,
2013-07-20 13:34:00,87.3,76.3,29.75,North,360,2.7,10.4,70,0.00,CLR,,0.00,WeatherDisplay:10.37,2013-07-20 17:34:00,
2013-07-20 13:39:00,87.7,77.5,29.75,North,360,2.2,2.3,72,0.00,CLR,,0.00,WeatherDisplay:10.37,2013-07-20 17:39:00,
2013-07-20 13:44:00,88.0,76.1,29.75,North,360,5.4,8.1,68,0.00,CLR,,0.00,WeatherDisplay:10.37,2013-07-20 17:44:00,
2013-07-20 13:49:00,88.5,76.6,29.75,North,360,1.3,5.8,68,0.00,CLR,,0.00,WeatherDisplay:10.37,2013-07-20 17:49:00,
2013-07-20 13:54:00,88.6,76.7,29.75,North,360,5.3,5.8,68,0.00,CLR,,0.00,WeatherDisplay:10.37,2013-07-20 17:54:00,
2013-07-20 13:59:00,88.1,77.5,29.75,North,360,1.6,6.9,71,0.00,CLR,,0.00,WeatherDisplay:10.37,2013-07-20 17:59:00,
2013-07-20 14:04:00,88.0,76.1,29.75,North,360,4.3,4.3,68,0.00,CLR,,0.00,WeatherDisplay:10.37,2013-07-20 18:04:00,
2013-07-20 14:09:00,88.0,76.5,29.75,North,360,5.8,9.2,69,0.00,CLR,,0.00,WeatherDisplay:10.37,2013-07-20 18:09:00,
2013-07-20 14:14:00,88.1,75.3,29.75,North,360,4.4,10.4,66,0.00,CLR,,0.00,WeatherDisplay:10.37,2013-07-20 18:14:00,
2013-07-20 14:19:00,87.9,75.1,29.74,North,360,3.8,9.2,66,0.00,CLR,,0.00,WeatherDisplay:10.37,2013-07-20 18:19:00,
2013-07-20 14:24:00,88.0,76.1,29.74,North,360,3.6,6.9,68,0.00,CLR,,0.00,WeatherDisplay:10.37,2013-07-20 18:24:00,
2013-07-20 14:29:00,87.9,75.6,29.74,North,360,6.0,11.5,67,0.00,CLR,,0.00,WeatherDisplay:10.37,2013-07-20 18:29:00,
2013-07-20 14:34:00,87.8,75.9,29.74,North,360,5.6,6.9,68,0.00,CLR,,0.00,WeatherDisplay:10.37,2013-07-20 18:34:00,
2013-07-20 14:39:00,88.6,78.0,29.73,North,360,2.6,8.1,71,0.00,CLR,,0.00,WeatherDisplay:10.37,2013-07-20 18:39:00,
2013-07-20 14:44:00,89.5,77.5,29.73,North,360,4.0,6.9,68,0.00,CLR,,0.00,WeatherDisplay:10.37,2013-07-20 18:44:00,
2013-07-20 14:50:00,89.9,77.5,29.73,North,360,3.0,8.0,67,0.00,CLR,,0.00,WeatherDisplay:10.37,2013-07-20 18:50:00,
2013-07-20 14:55:00,90.1,77.7,29.72,North,360,3.2,4.6,67,0.00,CLR,,0.00,WeatherDisplay:10.37,2013-07-20 18:55:00,
2013-07-20 15:00:00,90.4,76.1,29.72,North,360,7.5,12.7,63,0.00,CLR,,0.00,WeatherDisplay:10.37,2013-07-20 19:00:00,
2013-07-20 15:06:00,90.0,76.2,29.72,North,360,4.2,11.5,64,0.00,CLR,,0.00,WeatherDisplay:10.37,2013-07-20 19:06:00,
2013-07-20 15:11:00,90.4,75.1,29.72,North,360,8.8,16.1,61,0.00,CLR,,0.00,WeatherDisplay:10.37,2013-07-20 19:11:00,
2013-07-20 15:16:00,90.5,75.2,29.72,North,360,5.7,8.1,61,0.00,CLR,,0.00,WeatherDisplay:10.37,2013-07-20 19:16:00,
2013-07-20 15:21:00,90.6,75.3,29.72,North,360,5.3,6.9,61,0.00,CLR,,0.00,WeatherDisplay:10.37,2013-07-20 19:21:00,
2013-07-20 15:27:00,90.8,75.0,29.72,North,360,2.0,16.0,61,0.00,,,0.00,weatherlink.com 1.10,2013-07-20 19:27:00,
2013-07-20 15:32:00,91.2,75.9,29.73,West,263,3.1,3.5,61,0.00,CLR,,0.00,WeatherDisplay:10.37,2013-07-20 19:32:00,
2013-07-20 15:37:00,91.0,76.2,29.73,WSW,248,4.3,5.8,62,0.00,CLR,,0.00,WeatherDisplay:10.37,2013-07-20 19:37:00,
2013-07-20 15:42:00,90.2,75.4,29.73,WSW,254,3.6,8.1,62,0.00,CLR,,0.00,WeatherDisplay:10.37,2013-07-20 19:42:00,
2013-07-20 15:48:00,90.6,74.8,29.73,West,273,5.9,12.7,60,0.00,CLR,,0.00,WeatherDisplay:10.37,2013-07-20 19:48:00,
2013-07-20 15:53:00,90.6,75.3,29.73,WSW,246,5.7,6.9,61,0.00,CLR,,0.00,WeatherDisplay:10.37,2013-07-20 19:53:00,
2013-07-20 15:58:00,90.1,75.3,29.72,WSW,248,4.9,8.1,62,0.00,CLR,,0.00,WeatherDisplay:10.37,2013-07-20 19:58:00,
2013-07-20 16:03:00,89.7,74.9,29.73,West,271,3.3,4.6,62,0.00,CLR,,0.00,WeatherDisplay:10.37,2013-07-20 20:03:00,
2013-07-20 16:08:00,89.6,75.8,29.72,West,268,3.8,4.6,64,0.00,CLR,,0.00,WeatherDisplay:10.37,2013-07-20 20:08:00,
2013-07-20 16:13:00,90.5,76.2,29.72,West,273,3.0,4.0,63,0.00,CLR,,0.00,WeatherDisplay:10.37,2013-07-20 20:13:00,
2013-07-20 16:19:00,91.5,75.7,29.72,North,360,4.6,6.9,60,0.00,CLR,,0.00,WeatherDisplay:10.37,2013-07-20 20:19:00,
2013-07-20 16:24:00,91.5,75.7,29.72,North,360,3.8,6.9,60,0.00,CLR,,0.00,WeatherDisplay:10.37,2013-07-20 20:24:00,
2013-07-20 16:30:00,90.9,73.6,29.72,North,360,5.0,12.0,57,0.00,CLR,,0.00,WeatherDisplay:10.37,2013-07-20 20:30:00,
2013-07-20 16:35:00,90.3,73.5,29.72,North,360,6.0,9.0,58,0.00,CLR,,0.00,WeatherDisplay:10.37,2013-07-20 20:35:00,
2013-07-20 16:40:00,89.9,73.7,29.71,North,360,3.4,5.8,59,0.00,CLR,,0.00,WeatherDisplay:10.37,2013-07-20 20:40:00,
2013-07-20 16:45:00,90.3,73.5,29.72,North,360,6.1,10.4,58,0.00,CLR,,0.00,WeatherDisplay:10.37,2013-07-20 20:45:00,
2013-07-20 16:51:00,90.2,73.4,29.71,North,360,4.2,8.1,58,0.00,CLR,,0.00,WeatherDisplay:10.37,2013-07-20 20:51:00,
2013-07-20 16:56:00,89.6,72.9,29.72,North,360,6.7,9.2,58,0.00,CLR,,0.00,WeatherDisplay:10.37,2013-07-20 20:56:00,
2013-07-20 17:01:00,89.0,72.3,29.72,North,360,6.4,10.4,58,0.00,CLR,,0.00,WeatherDisplay:10.37,2013-07-20 21:01:00,
2013-07-20 17:06:00,89.0,70.7,29.72,North,360,6.9,9.2,55,0.00,CLR,,0.00,WeatherDisplay:10.37,2013-07-20 21:06:00,
2013-07-20 17:11:00,89.4,72.7,29.72,North,360,5.1,5.8,58,0.00,CLR,,0.00,WeatherDisplay:10.37,2013-07-20 21:11:00,
2013-07-20 17:17:00,89.7,71.9,29.73,North,360,3.6,5.8,56,0.00,CLR,,0.00,WeatherDisplay:10.37,2013-07-20 21:17:00,
2013-07-20 17:22:00,90.1,71.2,29.72,North,360,3.9,3.9,54,0.00,CLR,,0.00,WeatherDisplay:10.37,2013-07-20 21:22:00,
2013-07-20 17:27:00,90.3,71.9,29.72,North,360,7.2,9.2,55,0.00,CLR,,0.00,WeatherDisplay:10.37,2013-07-20 21:27:00,
2013-07-20 17:32:00,90.1,71.2,29.73,North,360,0.2,1.2,54,0.00,CLR,,0.00,WeatherDisplay:10.37,2013-07-20 21:32:00,
2013-07-20 17:37:00,89.4,70.6,29.72,North,360,4.9,6.9,54,0.00,CLR,,0.00,WeatherDisplay:10.37,2013-07-20 21:37:00,
2013-07-20 17:42:00,88.6,70.4,29.72,North,360,2.7,3.5,55,0.00,CLR,,0.00,WeatherDisplay:10.37,2013-07-20 21:42:00,
2013-07-20 17:47:00,88.0,71.4,29.72,North,360,3.2,3.5,58,0.00,CLR,,0.00,WeatherDisplay:10.37,2013-07-20 21:47:00,
2013-07-20 17:52:00,87.9,70.8,29.72,North,360,1.6,3.5,57,0.00,CLR,,0.00,WeatherDisplay:10.37,2013-07-20 21:52:00,
2013-07-20 17:57:00,87.5,71.4,29.73,North,360,3.3,4.6,59,0.00,CLR,,0.00,WeatherDisplay:10.37,2013-07-20 21:57:00,
2013-07-20 18:03:00,87.1,71.5,29.73,North,360,1.5,3.5,60,0.00,CLR,,0.00,WeatherDisplay:10.37,2013-07-20 22:03:00,
2013-07-20 18:09:00,86.9,72.3,29.73,North,360,1.6,3.5,62,0.00,CLR,,0.00,WeatherDisplay:10.37,2013-07-20 22:09:00,
2013-07-20 18:14:00,87.1,72.5,29.73,North,360,0.8,2.3,62,0.00,CLR,,0.00,WeatherDisplay:10.37,2013-07-20 22:14:00,
2013-07-20 18:19:00,87.7,73.1,29.73,North,360,1.2,2.0,62,0.00,CLR,,0.00,WeatherDisplay:10.37,2013-07-20 22:19:00,
2013-07-20 18:24:00,87.7,73.5,29.73,North,360,0.3,2.3,63,0.00,CLR,,0.00,WeatherDisplay:10.37,2013-07-20 22:24:00,
2013-07-20 18:30:00,87.4,71.8,29.72,North,360,1.0,3.0,60,0.00,CLR,,0.00,WeatherDisplay:10.37,2013-07-20 22:30:00,
2013-07-20 18:35:00,87.1,73.4,29.73,NW,321,1.7,2.3,64,0.00,CLR,,0.00,WeatherDisplay:10.37,2013-07-20 22:35:00,
2013-07-20 18:40:00,86.1,72.5,29.73,NW,321,1.0,2.3,64,0.00,CLR,,0.00,WeatherDisplay:10.37,2013-07-20 22:40:00,
2013-07-20 18:45:00,85.3,72.2,29.72,West,280,0.0,1.2,65,0.00,CLR,,0.00,WeatherDisplay:10.37,2013-07-20 22:45:00,
2013-07-20 18:51:00,84.8,74.3,29.73,SSW,192,0.5,1.2,71,0.00,CLR,,0.00,WeatherDisplay:10.37,2013-07-20 22:51:00,
2013-07-20 18:56:00,83.8,74.2,29.73,SW,225,0.3,2.3,73,0.00,CLR,,0.00,WeatherDisplay:10.37,2013-07-20 22:56:00,
2013-07-20 19:01:00,83.0,73.9,29.73,WSW,251,1.9,3.5,74,0.00,CLR,,0.00,WeatherDisplay:10.37,2013-07-20 23:01:00,
2013-07-20 19:06:00,82.6,73.5,29.73,South,178,1.2,3.5,74,0.00,CLR,,0.00,WeatherDisplay:10.37,2013-07-20 23:06:00,
2013-07-20 19:12:00,82.2,73.0,29.74,SW,234,4.0,6.0,74,0.00,,,0.00,weatherlink.com 1.10,2013-07-20 23:12:00,
2013-07-20 19:17:00,81.8,73.1,29.73,SW,225,0.2,2.3,75,0.00,CLR,,0.00,WeatherDisplay:10.37,2013-07-20 23:17:00,
2013-07-20 19:22:00,81.5,73.2,29.75,WSW,242,1.8,3.5,76,0.00,CLR,,0.00,WeatherDisplay:10.37,2013-07-20 23:22:00,
2013-07-20 19:27:00,81.3,73.0,29.74,East,81,0.0,1.2,76,0.00,CLR,,0.00,WeatherDisplay:10.37,2013-07-20 23:27:00,
2013-07-20 19:33:00,81.1,73.6,29.75,East,86,0.3,2.0,78,0.00,CLR,,0.00,WeatherDisplay:10.37,2013-07-20 23:33:00,
2013-07-20 19:38:00,80.7,73.6,29.75,SW,233,0.9,2.3,79,0.00,CLR,,0.00,WeatherDisplay:10.37,2013-07-20 23:38:00,
2013-07-20 19:43:00,80.3,73.6,29.76,WSW,237,2.7,2.7,80,0.00,CLR,,0.00,WeatherDisplay:10.37,2013-07-20 23:43:00,
2013-07-20 19:48:00,79.8,73.8,29.76,SSW,201,3.1,4.6,82,0.00,CLR,,0.00,WeatherDisplay:10.37,2013-07-20 23:48:00,
2013-07-20 19:54:00,78.9,73.7,29.77,SW,231,1.7,3.5,84,0.00,CLR,,0.00,WeatherDisplay:10.37,2013-07-20 23:54:00,
2013-07-20 19:59:00,77.9,72.7,29.77,WSW,253,3.6,6.9,84,0.00,CLR,,0.00,WeatherDisplay:10.37,2013-07-20 23:59:00,
2013-07-20 20:04:00,77.1,72.2,29.77,West,259,2.0,4.6,85,0.00,CLR,,0.00,WeatherDisplay:10.37,2013-07-21 00:04:00,
2013-07-20 20:09:00,76.4,71.9,29.77,West,261,0.6,1.2,86,0.00,CLR,,0.00,WeatherDisplay:10.37,2013-07-21 00:09:00,
2013-07-20 20:14:00,76.0,71.8,29.77,West,275,0.9,3.5,87,0.00,CLR,,0.00,WeatherDisplay:10.37,2013-07-21 00:14:00,
2013-07-20 20:19:00,75.6,71.8,29.77,WSW,257,2.3,3.5,88,0.00,CLR,,0.00,WeatherDisplay:10.37,2013-07-21 00:19:00,
2013-07-20 20:24:00,75.4,71.6,29.77,WSW,255,0.6,1.2,88,0.00,CLR,,0.00,WeatherDisplay:10.37,2013-07-21 00:24:00,
2013-07-20 20:29:00,75.3,71.5,29.77,WSW,255,0.0,0.0,88,0.00,CLR,,0.00,WeatherDisplay:10.37,2013-07-21 00:29:00,
2013-07-20 20:34:00,75.2,71.4,29.77,WSW,255,0.0,0.0,88,0.00,CLR,,0.00,WeatherDisplay:10.37,2013-07-21 00:34:00,
2013-07-20 20:40:00,75.1,71.6,29.77,WSW,255,0.0,0.0,89,0.00,CLR,,0.00,WeatherDisplay:10.37,2013-07-21 00:40:00,
2013-07-20 20:45:00,75.1,71.6,29.78,WSW,255,0.0,0.0,89,0.00,CLR,,0.00,WeatherDisplay:10.37,2013-07-21 00:45:00,
2013-07-20 20:50:00,75.1,72.0,29.78,WSW,255,0.0,0.0,90,0.00,CLR,,0.00,WeatherDisplay:10.37,2013-07-21 00:50:00,
2013-07-20 20:55:00,75.1,72.0,29.78,WSW,255,0.0,0.0,90,0.00,CLR,,0.00,WeatherDisplay:10.37,2013-07-21 00:55:00,
2013-07-20 21:00:00,74.9,71.8,29.79,WSW,255,0.0,0.0,90,0.00,CLR,,0.00,WeatherDisplay:10.37,2013-07-21 01:00:00,
2013-07-20 21:05:00,74.8,71.7,29.79,WSW,255,0.0,0.0,90,0.00,CLR,,0.00,WeatherDisplay:10.37,2013-07-21 01:05:00,
2013-07-20 21:10:00,74.7,71.6,29.79,WSW,255,0.0,0.0,90,0.00,CLR,,0.00,WeatherDisplay:10.37,2013-07-21 01:10:00,
2013-07-20 21:15:00,74.6,71.5,29.79,WSW,255,0.0,0.0,90,0.00,CLR,,0.00,WeatherDisplay:10.37,2013-07-21 01:15:00,
2013-07-20 21:20:00,74.5,71.4,29.79,WSW,255,0.0,0.0,90,0.00,CLR,,0.00,WeatherDisplay:10.37,2013-07-21 01:20:00,
2013-07-20 21:25:00,74.4,71.6,29.79,WSW,255,0.0,0.0,91,0.00,CLR,,0.00,WeatherDisplay:10.37,2013-07-21 01:25:00,
2013-07-20 21:30:00,74.3,71.5,29.78,WSW,255,0.0,0.0,91,0.00,CLR,,0.00,WeatherDisplay:10.37,2013-07-21 01:30:00,
2013-07-20 21:35:00,74.2,71.4,29.78,WSW,255,0.0,0.0,91,0.00,CLR,,0.00,WeatherDisplay:10.37,2013-07-21 01:35:00,
2013-07-20 21:40:00,74.2,71.4,29.78,WSW,253,0.0,0.0,91,0.00,CLR,,0.00,WeatherDisplay:10.37,2013-07-21 01:40:00,
2013-07-20 21:46:00,74.1,71.3,29.79,WSW,253,0.0,0.0,91,0.00,CLR,,0.00,WeatherDisplay:10.37,2013-07-21 01:46:00,
2013-07-20 21:51:00,74.0,71.2,29.79,WSW,253,0.0,0.0,91,0.00,CLR,,0.00,WeatherDisplay:10.37,2013-07-21 01:51:00,
2013-07-20 21:56:00,74.0,71.2,29.79,WSW,253,0.0,0.0,91,0.00,CLR,,0.00,WeatherDisplay:10.37,2013-07-21 01:56:00,
2013-07-20 22:01:00,73.9,71.1,29.79,WSW,253,0.0,0.0,91,0.00,CLR,,0.00,WeatherDisplay:10.37,2013-07-21 02:01:00,
2013-07-20 22:06:00,73.9,71.1,29.79,WSW,253,0.0,0.0,91,0.00,CLR,,0.00,WeatherDisplay:10.37,2013-07-21 02:06:00,
2013-07-20 22:11:00,73.8,71.0,29.79,WSW,253,0.0,0.0,91,0.00,CLR,,0.00,WeatherDisplay:10.37,2013-07-21 02:11:00,
2013-07-20 22:16:00,73.7,71.2,29.79,WSW,252,0.0,0.0,92,0.00,CLR,,0.00,WeatherDisplay:10.37,2013-07-21 02:16:00,
2013-07-20 22:22:00,73.6,71.1,29.79,WSW,252,0.6,2.0,92,0.00,CLR,,0.00,WeatherDisplay:10.37,2013-07-21 02:22:00,
2013-07-20 22:27:00,73.4,70.9,29.80,WSW,252,0.5,1.0,92,0.00,CLR,,0.00,WeatherDisplay:10.37,2013-07-21 02:27:00,
2013-07-20 22:32:00,73.3,70.8,29.80,WSW,252,0.6,1.2,92,0.00,CLR,,0.00,WeatherDisplay:10.37,2013-07-21 02:32:00,
2013-07-20 22:37:00,73.2,70.7,29.80,WSW,252,0.0,0.0,92,0.00,CLR,,0.00,WeatherDisplay:10.37,2013-07-21 02:37:00,
2013-07-20 22:43:00,73.1,71.0,29.80,WSW,252,0.0,0.0,92,0.00,,,0.00,weatherlink.com 1.10,2013-07-21 02:43:00,
2013-07-20 22:48:00,73.1,70.6,29.80,WSW,252,1.2,2.3,92,0.00,CLR,,0.00,WeatherDisplay:10.37,2013-07-21 02:48:00,
2013-07-20 22:54:00,73.2,70.4,29.81,WSW,252,1.1,3.5,91,0.00,CLR,,0.00,WeatherDisplay:10.37,2013-07-21 02:54:00,
2013-07-20 22:59:00,73.2,70.4,29.81,WSW,252,0.0,0.0,91,0.00,CLR,,0.00,WeatherDisplay:10.37,2013-07-21 02:59:00,
2013-07-20 23:04:00,73.1,70.6,29.81,WSW,252,0.0,0.0,92,0.00,CLR,,0.00,WeatherDisplay:10.37,2013-07-21 03:04:00,
2013-07-20 23:10:00,73.1,70.6,29.81,WSW,252,0.3,1.2,92,0.00,CLR,,0.00,WeatherDisplay:10.37,2013-07-21 03:10:00,
2013-07-20 23:15:00,73.1,70.6,29.81,WSW,252,0.0,0.0,92,0.00,CLR,,0.00,WeatherDisplay:10.37,2013-07-21 03:15:00,
2013-07-20 23:20:00,73.1,70.6,29.81,WSW,252,0.2,1.2,92,0.00,CLR,,0.00,WeatherDisplay:10.37,2013-07-21 03:20:00,
2013-07-20 23:25:00,73.0,70.5,29.81,WSW,252,0.0,0.0,92,0.00,CLR,,0.00,WeatherDisplay:10.37,2013-07-21 03:25:00,
2013-07-20 23:31:00,72.8,70.3,29.82,WSW,252,0.0,0.0,92,0.00,CLR,,0.00,WeatherDisplay:10.37,2013-07-21 03:31:00,
2013-07-20 23:36:00,72.6,70.1,29.81,WSW,252,0.0,0.0,92,0.00,CLR,,0.00,WeatherDisplay:10.37,2013-07-21 03:36:00,
2013-07-20 23:41:00,72.4,69.9,29.81,WSW,252,0.0,0.0,92,0.00,CLR,,0.00,WeatherDisplay:10.37,2013-07-21 03:41:00,
2013-07-20 23:46:00,72.2,69.7,29.82,WSW,252,0.0,0.0,92,0.00,CLR,,0.00,WeatherDisplay:10.37,2013-07-21 03:46:00,
2013-07-20 23:51:00,72.0,69.5,29.82,WSW,252,0.0,0.0,92,0.00,CLR,,0.00,WeatherDisplay:10.37,2013-07-21 03:51:00,
2013-07-20 23:57:00,71.8,69.3,29.82,WSW,252,0.0,0.0,92,0.00,CLR,,0.00,WeatherDisplay:10.37,2013-07-21 03:57:00,